Current Version              Previous Version:    01  02  03  04  05  06  07  08  09  10  11  12  13  14  15  16  17  18  19  20  21  22  23  24  25  26  27  28  29  30  
   31  32  33  34  35  36  37  38  39  40  41  42  43  44  45  46  47  48  49  50  51  52  53  54  55  56  57  58  59  60  

[Printable]
372
ASUS44 KLUB 230201
RWRTX
WEST TEXAS WEATHER ROUNDUP
NATIONAL WEATHER SERVICE LUBBOCK TX
900 PM CDT WED OCT 22 2014

NOTE: "FAIR" INDICATES FEW OR NO CLOUDS BELOW 12,000 FEET WITH NO
SIGNIFICANT WEATHER AND/OR OBSTRUCTIONS TO VISIBILITY.

TXZ004-006>008-010-012-014-016-OKZ002-230300-
TEXAS PANHANDLE/OKLAHOMA PANHANDLE

CITY           SKY/WX    TMP DP  RH WIND       PRES   REMARKS
AMARILLO       CLOUDY    62  59  90 S16       30.11R
CANADIAN       CLOUDY    62  60  93 S13       30.09S
DALHART        CLEAR     61  53  75 SE8       30.08R
DUMAS          PTCLDY    60  57  91 SE12      30.08R FOG
GUYMON         CLEAR     63  59  87 S16G23    30.04R
HEREFORD       CLEAR     62  60  94 MISG      30.11R
PAMPA          CLOUDY    61  59  92 S15       30.11S
$$

TXZ026-029-035-045-048-230300-
SOUTHERN PANHANDLE/SOUTH PLAINS/ROLLING PLAINS

CITY           SKY/WX    TMP DP  RH WIND       PRES   REMARKS
CHILDRESS      CLOUDY    63  61  93 SE8       30.12R FOG
LUBBOCK        CLOUDY    63  59  87 S13       30.12R
SNYDER         MOCLDY    62  58  87 SE9       30.13R
$$

TXZ052-054-060>062-072-078-127-140-154-169-230300-
PERMIAN BASIN/CONCHO VALLEY/BIG COUNTRY/EDWARDS PLATEAU

CITY           SKY/WX    TMP DP  RH WIND       PRES   REMARKS
ABILENE        PTCLDY    66  57  72 SE6       30.11S
BIG SPRING     MOCLDY    65  54  66 SE12      30.15R
JUNCTION       LGT RAIN  66  59  78 SW5       30.13R
MIDLAND        MOCLDY    65  54  67 S16       30.12R
ODESSA         PTCLDY    65  52  62 S14       30.13R
SAN ANGELO     CLOUDY    65  58  78 CALM      30.12R
SONORA         CLOUDY    61  59  94 CALM      30.18R
WINK           CLEAR     66  61  84 SE10      30.08R
$$

TXZ055-058-074-075-080-082-230300-
FAR WEST/SOUTHWEST MOUNTAINS/TRANS PECOS

CITY           SKY/WX    TMP DP  RH WIND       PRES   REMARKS
ALPINE         PTCLDY    62  58  86 S7        30.21R
DRYDEN           N/A     63  57  81 E5        30.12R
EL PASO        PTCLDY    68  55  63 E6        30.10R
FORT STOCKTON  PTCLDY    64  59  83 S16G24    30.10R
MARFA          CLOUDY    61  57  88 S3        30.20R
PECOS          CLOUDY    67  60  78 E7        30.07R
PRESIDIO       FAIR      72  60  66 NE7       30.07R
$$

TXZ014-016-019-021>030-083-230300
TEXAS TECH WEST TEXAS MESONET/TEXAS PANHANDLE/NORTHERN SOUTH PLAINS

CITY           SKY/WX    TMP DP  RH WIND       PRES   REMARKS
ABERNATHY 5ENE   N/A     60  58  94 S12       30.13R
AMARILLO 9NNE    N/A     63  60  88 S14       30.08R
AMARILLO 7SSE    N/A     61  59  94 S12       30.12R
AMHERST 1NE      N/A     60  59  94 SE10      30.11R
BOOTLEG 11WNW    N/A     61  54  75 S13       30.13R
CANADIAN 6E      N/A     61  58  92 S14       30.09R
CAPROCK CYN SP   N/A     63  60  88 S13       30.11R
CHILDRESS 2NNE   N/A     61  60  96 SE7       30.11R
CLARENDON 2WSW   N/A     62  59  91 SE13      30.11R
CLAUDE 12SW      N/A     62  59  90 S12       30.11R
DIMMITT 2NE      N/A     59  57  93 SE12      30.11R
FLOYDADA 2NNE    N/A     61  59  92 S10       30.12S
FRIONA 2NE       N/A     62  57  82 S16       30.11R
GOODLETT 3W      N/A     61  58  91 E6        30.10S
HART 3N          N/A     60  58  95 SE9       30.11R
HEREFORD 2NW     N/A     62  56  82 S10       30.10R
MCLEAN 1E        N/A     56  56  97 SE13      30.10R
MEMPHIS 1NE      N/A     62  61  96 SE8       30.11R
MULESHOE 2SSW    N/A     62  58  87 SE10      30.11R
OLTON 6S         N/A     60  58  92 SE9       30.11R
PALO DURO SP     N/A     62  58  89 S15       30.12R
PAMPA 2E         N/A     60  59  95 SE13      30.11R
PLAINVIEW 1S     N/A     61  59  95 S12       30.11R
SILVERTON 7ESE   N/A     62  58  88 S13       30.12R
TULIA 2ENE       N/A     60  59  96 S12       30.11R
TURKEY 2WSW      N/A     64  60  88 S10       30.10R
UMBARGER 3NNE    N/A     60  58  93 S10       30.11R
$$

TXZ033>036-039>041-045>048-230300
TEXAS TECH WEST TEXAS MESONET/SOUTH PLAINS

CITY           SKY/WX    TMP DP  RH WIND       PRES   REMARKS
AIKEN 3WSW       N/A     59  58  96 S12       30.13R
ANDREWS 2NE      N/A     64  55  72 SE7       30.12R
ANTON 6SSW       N/A     61  59  95 SE12      30.11S
BROWNFIELD 2S    N/A     61  59  94 SE9       30.12S
DENVR CTY 7WNW   N/A     58  56  92 SE5       30.12S
GAIL 2ESE        N/A     62  59  92 SE6       30.11S
LAMESA 2SE       N/A     62  60  92 SE8       30.13R
LEVELLAND 4S     N/A     61  58  91 SE8       30.12R
LUBBOCK 3WNW     N/A     63  59  86 S12       30.12S
MORTON 1ENE      N/A     61  59  91 S9        30.11R
ODONNELL 1N      N/A     61  59  91 SE12      30.12S
PLAINS 3N        N/A     61  58  89 SE9       30.13R
RALLS 1SE        N/A     61  59  94 SE10      30.14R
REESE CENTER     N/A     61  59  93 SE13      30.12R
SEMINOLE 2NNE    N/A     60  58  92 SE5       30.12R
SLATON 2NE       N/A     60  58  93 SE10      30.14R
SNYDER 3E        N/A     60  59  97 SE9       30.12R
SUNDOWN 8SW      N/A     60  58  93 SE9       30.12R
TAHOKA 3NNE      N/A     61  59  94 SE10      30.13R
WOLFFORTH 6SSW   N/A     62  62  98 SE12      30.13R
$$

TXZ031-032-036>038-042>044-230300-
TEXAS TECH WEST TEXAS MESONET/ROLLING PLAINS

CITY           SKY/WX    TMP DP  RH WIND       PRES   REMARKS
ASPERMONT 3NE    N/A     62  60  94 CALM      30.10R
FLUVANNA 3WNW    N/A     61  57  88 SE8       30.12S
GRAHAM 5SSW      N/A     60  58  95 SE8       30.12S
GUTHRIE 10WSW    N/A     62  59  88 SE10      30.10S
HASKELL 1NW      N/A     64  60  87 SE5       30.09F
JAYTON 1SSE      N/A     62  60  93 SE2       30.12R
KNOX CITY 3NW    N/A     62  58  86 E3        30.10S
LK A HENRY 1NW   N/A     62  60  92 SE3       30.11S
NORTHFIELD 1S    N/A     63  61  95 SE7       30.10S
ODELL 4ENE       N/A     60  58  96 NE2       30.12R
PADUCAH 10SW     N/A     62  60  94 SE5       30.10S
POST 1NE         N/A     60  59  94 S2        30.12R
RRING SPRGS 3N   N/A     62  59  91 S10       30.12R
SEYMOUR 3NW      N/A     62  58  88 NE2       30.10S
SPUR 1W          N/A     62  59  90 S2        30.11R
WEINERT 2NNE     N/A     62  60  96 E3        30.10S
WHITE RVR 6NE    N/A     61  59  93 SE6       30.13R
$$

TXZ052-054-060>062-072-078-127-140-154-169-230300-
TEXAS TECH WEST TEXAS MESONET/PERMIAN BASIN/
CONCHO VALLEY/BIG COUNTRY/EDWARDS PLATEAU

CITY           SKY/WX    TMP DP  RH WIND       PRES   REMARKS
COYANOSA 2N      N/A     67  60  80 E10       30.10R
JUNCTION 1SSW    N/A     64  61  88 S2        30.13R
MERTZON 3NNE     N/A     61  57  89 SW2       30.14R
SAN ANGELO 7NW LGT RAIN  64  56  77 W5        30.13R
STRLNG CT 4WSW   N/A     63  54  71 SE7       30.13S
ST LAWRNCE 5SW   N/A     60  52  74 SE10      30.14R
SWEETWATR 11SW   N/A     60  56  86 SE7       30.14S
WALL 1E          N/A     67  54  64 N2        30.13R
$$

TXZ055-058-074-075-080-082-230300-
TEXAS TECH WEST TEXAS MESONET/FAR WEST/SOUTHWEST MOUNTAINS/TRANS PECOS

CITY           SKY/WX    TMP DP  RH WIND       PRES   REMARKS
PRSMN GAP BBNP   N/A     65  61  87 NE16      30.11R
GUADLPE MTN NP   N/A     59  55  86 NE2       30.22R
$$